EW7164 Weather Reports


Display with metric or nautical units.
time (UTC)temp
F
wind
direction
speed
MPH
gust
MPH
rain 1hr
in
rain 24hr
in
rain mn
in
humidity
%
barometer
mb
20260906145927 60 353 12.0 17.0 0.00 0.01 0.00 57 1014.1
20260906144928 60 335 10.0 15.0 0.00 0.01 0.00 61 1014.0
20260906143928 60 317 16.0 21.0 0.00 0.01 0.00 64 1013.9
20260906142928 59 346 7.0 12.0 0.00 0.01 0.00 68 1014.4
20260906142026 58 311 11.0 15.0 0.00 0.01 0.00 67 1014.2
20260906141028 59 312 13.0 18.0 0.00 0.01 0.00 66 1014.2
20260906135127 59 340 9.0 12.0 0.00 0.01 0.00 67 1014.3
20260906133128 58 318 8.0 11.0 0.00 0.01 0.00 71 1014.4
20260906132128 56 324 5.0 11.0 0.00 0.01 0.00 74 1014.4
20260906132029 56 340 8.0 11.0 0.00 0.01 0.00 74 1014.4
20260906131026 56 317 10.0 12.0 0.00 0.01 0.00 74 1014.3
20260906130027 56 313 8.0 11.0 0.00 0.01 0.00 74 1014.5
20260906123927 55 316 8.0 13.0 0.00 0.01 0.00 76 1014.4
20260906122926 56 323 7.0 16.0 0.00 0.01 0.00 74 1014.5
20260906121927 55 344 9.0 16.0 0.00 0.01 0.00 75 1014.2
20260906121827 55 352 15.0 20.0 0.00 0.01 0.00 75 1014.4
20260906120926 54 328 13.0 16.0 0.00 0.01 0.00 77 1014.4
20260906115927 54 343 9.0 16.0 0.00 0.01 0.00 78 1014.6
20260906115831 54 1 7.0 13.0 0.00 0.01 0.00 78 1014.5
20260906114826 54 353 8.0 12.0 0.00 0.01 0.00 80 1014.4
20260906113827 53 354 8.0 13.0 0.00 0.01 0.00 80 1014.7
20260906112828 53 334 5.0 9.0 0.00 0.01 0.00 83 1014.7
20260906111927 52 316 6.0 9.0 0.00 0.01 0.00 82 1014.6
20260906110126 52 300 6.0 11.0 0.00 0.01 0.00 85 1014.4
20260906110027 52 313 7.0 13.0 0.00 0.01 0.00 85 1014.2
20260906105026 51 316 10.0 17.0 0.00 0.01 0.00 86 1014.1
20260906104027 51 328 9.0 13.0 0.00 0.01 0.00 87 1014.0
20260906103028 51 316 6.0 11.0 0.00 0.01 0.00 87 1013.9
20260906102126 50 311 9.0 12.0 0.00 0.01 0.00 87 1013.9
20260906101128 50 308 9.0 11.0 0.00 0.01 0.00 87 1013.8
20260906100127 50 314 7.0 9.0 0.00 0.01 0.00 88 1013.9
20260906094128 50 307 7.0 10.0 0.00 0.01 0.00 89 1013.8
20260906094027 50 312 8.0 11.0 0.00 0.01 0.00 89 1013.7
20260906093126 50 313 7.0 9.0 0.00 0.01 0.00 89 1013.7
20260906092128 50 315 9.0 15.0 0.00 0.01 0.00 89 1013.7
20260906092026 50 311 9.0 11.0 0.00 0.01 0.00 89 1013.5
20260906085028 50 302 8.0 11.0 0.00 0.01 0.00 88 1013.6
20260906084027 50 297 8.0 11.0 0.00 0.01 0.00 87 1013.6
20260906083125 50 310 9.0 13.0 0.00 0.01 0.00 86 1013.5
20260906081142 51 315 8.0 9.0 0.00 0.01 0.00 86 1013.7
20260906075228 51 308 8.0 10.0 0.00 0.01 0.00 87 1013.5
20260906074226 51 309 7.0 9.0 0.00 0.01 0.00 87 1013.7
20260906073227 51 315 6.0 8.0 0.00 0.01 0.00 86 1013.7
20260906072228 51 315 6.0 7.0 0.00 0.01 0.00 87 1013.7
20260906071229 52 310 6.0 7.0 0.00 0.01 0.00 86 1013.6
20260906070226 52 336 3.0 4.0 0.00 0.01 0.00 85 1013.6
20260906065227 52 321 7.0 9.0 0.00 0.01 0.00 85 1013.6
20260906063228 53 320 5.0 8.0 0.00 0.01 0.00 82 1013.6
20260906061227 53 343 4.0 7.0 0.00 0.01 0.00 81 1013.7
20260906060227 53 2 4.0 6.0 0.00 0.01 0.00 81 1013.7
20260906055227 53 321 6.0 8.0 0.00 0.01 0.00 80 1013.7
20260906053226 54 331 7.0 11.0 0.00 0.01 0.00 79 1013.6
20260906053127 54 342 6.0 7.0 0.00 0.01 0.00 80 1013.6
20260906052126 54 2 9.0 13.0 0.00 0.01 0.00 79 1013.7
20260906051226 54 340 6.0 9.0 0.00 0.01 0.00 81 1013.9
20260906050227 54 335 6.0 9.0 0.00 0.01 0.00 80 1013.9
20260906045325 54 328 6.0 11.0 0.00 0.01 0.00 80 1013.9
20260906044327 55 343 7.0 11.0 0.00 0.01 0.00 81 1013.8
20260906043426 55 5 6.0 8.0 0.00 0.01 0.00 79 1013.7
20260906041425 56 344 6.0 10.0 0.00 0.01 0.00 77 1013.7
20260906034614 56 13 5.0 6.0 0.00 0.01 0.01 77 1013.7
20260906033617 56 22 7.0 9.0 0.00 0.01 0.01 77 1013.7
20260906032615 56 21 11.0 14.0 0.00 0.01 0.01 78 1013.6
20260906031618 57 7 10.0 16.0 0.00 0.01 0.01 78 1013.6
20260906025617 57 15 11.0 20.0 0.00 0.01 0.01 78 1013.8
20260906023815 58 5 9.0 12.0 0.00 0.01 0.01 77 1013.5
20260906022716 58 36 9.0 14.0 0.00 0.01 0.01 77 1013.5
20260906021717 58 19 9.0 14.0 0.00 0.01 0.01 79 1013.5
20260906020718 58 17 11.0 16.0 0.00 0.01 0.01 80 1013.3
20260906015716 58 22 8.0 12.0 0.00 0.01 0.01 80 1013.4
20260906014719 58 16 10.0 17.0 0.00 0.01 0.01 80 1013.7
20260906014616 58 10 7.0 11.0 0.00 0.01 0.01 80 1013.7
20260906013714 58 18 9.0 12.0 0.00 0.01 0.01 80 1013.7
20260906011717 58 34 7.0 10.0 0.00 0.01 0.01 80 1013.7
20260906010719 59 25 9.0 13.0 0.00 0.01 0.01 79 1013.7
20260906005815 59 47 11.0 15.0 0.00 0.01 0.01 78 1013.6
20260906004914 59 23 12.0 18.0 0.00 0.01 0.01 78 1013.8
20260906003915 59 36 9.0 15.0 0.00 0.01 0.01 77 1013.8
20260906003014 59 8 9.0 12.0 0.00 0.01 0.01 79 1013.9
20260906002014 59 4 9.0 13.0 0.00 0.01 0.01 81 1013.9
20260906001016 59 346 10.0 13.0 0.00 0.01 0.01 81 1013.9
20260905235914 59 338 8.0 12.0 0.00 0.01 0.01 80 1013.7
20260905235816 59 331 8.0 15.0 0.00 0.01 0.01 79 1013.8
20260905233918 60 3 8.0 12.0 0.00 0.01 0.01 80 1013.5
20260905233816 60 344 9.0 12.0 0.00 0.01 0.01 80 1013.6
20260905232817 60 329 9.0 14.0 0.00 0.01 0.01 80 1013.6
20260905231817 61 341 12.0 15.0 0.00 0.01 0.01 79 1013.4
20260905230916 61 340 8.0 14.0 0.00 0.01 0.01 76 1013.3
20260905225818 61 332 9.0 12.0 0.00 0.01 0.01 76 1013.1
20260905224915 61 30 9.0 14.0 0.00 0.01 0.01 75 1013.0
20260905223914 61 24 8.0 11.0 0.00 0.01 0.01 76 1012.9
20260905222915 61 32 13.0 16.0 0.00 0.01 0.01 76 1012.7
20260905221916 61 8 10.0 15.0 0.00 0.01 0.01 75 1012.7
20260905220917 62 44 14.0 21.0 0.00 0.01 0.01 74 1012.4
20260905215914 62 30 9.0 13.0 0.00 0.01 0.01 73 1012.4
20260905214915 62 19 11.0 17.0 0.00 0.01 0.01 77 1012.1
20260905213915 64 38 13.0 22.0 0.00 0.01 0.01 72 1011.8
20260905211915 64 11 8.0 12.0 0.00 0.01 0.01 72 1011.5
20260905211014 64 45 5.0 7.0 0.00 0.01 0.01 72 1011.6
20260905210017 64 25 8.0 12.0 0.00 0.01 0.01 72 1011.4
20260905204114 64 24 5.0 7.0 0.00 0.01 0.01 73 1011.2
20260905202116 63 25 12.0 16.0 0.00 0.01 0.01 74 1011.0
20260905201115 64 350 12.0 16.0 0.00 0.01 0.01 75 1011.1
20260905201015 64 332 10.0 16.0 0.00 0.01 0.01 75 1010.9
20260905200015 64 339 2.0 4.0 0.00 0.01 0.01 76 1010.9
20260905195015 63 343 7.0 9.0 0.00 0.01 0.01 79 1010.9
20260905194016 62 323 8.0 11.0 0.00 0.01 0.01 81 1011.0
20260905192015 63 21 13.0 18.0 0.00 0.01 0.01 76 1011.0
20260905191014 63 22 11.0 14.0 0.00 0.01 0.01 74 1011.1
20260905185114 63 15 15.0 22.0 0.00 0.01 0.01 75 1011.1
20260905184115 64 356 6.0 8.0 0.00 0.01 0.01 74 1010.7
20260905183214 65 322 8.0 10.0 0.01 0.01 0.01 72 1010.8
20260905182216 65 326 5.0 7.0 0.01 0.01 0.01 73 1010.7
20260905181314 63 338 6.0 9.0 0.01 0.01 0.01 79 1010.9
20260905180316 62 320 5.0 8.0 0.01 0.01 0.01 81 1011.1
20260905175415 61 4 6.0 8.0 0.01 0.01 0.01 82 1011.1
20260905173416 65 11 15.0 21.0 0.00 0.00 0.00 71 1011.0
20260905172417 67 350 10.0 16.0 0.00 0.00 0.00 67 1010.7
20260905171417 66 9 5.0 11.0 0.00 0.00 0.00 68 1010.8
20260905165517 65 342 12.0 16.0 0.00 0.00 0.00 68 1010.9
20260905164515 64 21 11.0 13.0 0.00 0.00 0.00 69 1011.0
20260905164416 64 34 9.0 12.0 0.00 0.00 0.00 70 1011.0
20260905164315 64 25 10.0 13.0 0.00 0.00 0.00 70 1010.8
20260905163316 64 1 11.0 21.0 0.00 0.00 0.00 71 1010.9
20260905162316 64 29 11.0 16.0 0.00 0.00 0.00 71 1010.9
20260905161315 65 5 12.0 19.0 0.00 0.00 0.00 68 1010.6
20260905160316 65 17 10.0 16.0 0.00 0.00 0.00 67 1010.7
20260905155416 64 18 10.0 14.0 0.00 0.00 0.00 69 1010.8
20260905154417 65 21 11.0 14.0 0.00 0.00 0.00 69 1010.5
20260905152415 65 19 12.0 17.0 0.00 0.00 0.00 69 1010.8